User: anonymous
Location: Unspecified
(0.0000°N, 0.0000°E)
Time: 09:22:11
(UTC+02:00)
Language:

Meteor 2-8 Rocket - Orbit

View from above orbital plane
View from above orbital plane
View from above satellite
View from above satellite

Ground track
Ground track

The orbit data is extracted from the following two-line orbital elements,

1 13114U 82025B   14211.43589395  .00000033  00000-0  16243-4 0  4555
2 13114 082.5426 320.4309 0013890 222.4205 207.8075 13.84627356634724
Epoch (UTC): 30 July 2014 10:27:41
Eccentricity: 0.0013890
inclination: 82.5426°
perigee height: 937 km
apogee height: 957 km
right ascension of ascending node: 320.4309°
argument of perigee: 222.4205°
revolutions per day: 13.84627356
mean anomaly at epoch: 207.8075°
orbit number at epoch: 63472

The dashed part of the orbit path shows where the satellite is in the earth's shadow,  

DLR